This is the latest recevied weather packets stored in our database for station/object T10BNorth. If no packets are shown the sender has not sent any weather packets the latest 10 day(s).
| Time | Temp. | Humidity | Pressure | Rain* | Wind** | Luminosity | Snow |
|---|---|---|---|---|---|---|---|
| 1777645219 | 5.56° C | 74% | 1008 hPa | 0 mm | - | 302 W/m² | - |
| 1777645160 | 5.56° C | 74% | 1008.2 hPa | 0 mm | - | 272 W/m² | - |
| 1777645095 | 5.56° C | 74% | 1008.1 hPa | 0 mm | - | 272 W/m² | - |
| 1777645035 | 5.56° C | 73% | 1008.1 hPa | 0 mm | - | 272 W/m² | - |
| 1777644974 | 5.56° C | 73% | 1008 hPa | 0 mm | - | 234 W/m² | - |
| 1777644914 | 5.56° C | 74% | 1007.9 hPa | 0 mm | - | 225 W/m² | - |
| 1777644854 | 6.11° C | 73% | 1008 hPa | 0 mm | - | 255 W/m² | - |
| 1777644795 | 5.56° C | 74% | 1008 hPa | 0 mm | - | 290 W/m² | - |
| 1777644736 | 6.11° C | 74% | 1008 hPa | 0 mm | - | 336 W/m² | - |
| 1777644676 | 5.56° C | 73% | 1008 hPa | 0 mm | - | 332 W/m² | - |
| 1777644614 | 5.56° C | 72% | 1008 hPa | 0 mm | - | 336 W/m² | - |
| 1777644555 | 6.11° C | 72% | 1007.9 hPa | 0 mm | - | 336 W/m² | - |
| 1777644496 | 5.56° C | 72% | 1007.9 hPa | 0 mm | - | 336 W/m² | - |
| 1777644436 | 5.56° C | 71% | 1007.8 hPa | 0 mm | - | 336 W/m² | - |
| 1777644371 | 6.11° C | 71% | 1007.8 hPa | 0 mm | - | 320 W/m² | - |
| 1777644311 | 6.11° C | 70% | 1007.8 hPa | 0 mm | - | 403 W/m² | - |
| 1777644252 | 6.11° C | 71% | 1007.8 hPa | 0 mm | - | 403 W/m² | - |
| 1777644191 | 6.11° C | 70% | 1007.8 hPa | 0 mm | - | 364 W/m² | - |
| 1777644130 | 6.11° C | 73% | 1007.8 hPa | 0 mm | - | 364 W/m² | - |
| 1777644070 | 6.11° C | 74% | 1007.8 hPa | 0 mm | - | 439 W/m² | - |
| 1777644012 | 5.56° C | 72% | 1007.6 hPa | 0 mm | - | 439 W/m² | - |
| 1777643951 | 5.56° C | 72% | 1007.8 hPa | 0 mm | - | 439 W/m² | - |
| 1777643889 | 5.56° C | 72% | 1007.8 hPa | 0 mm | - | 439 W/m² | - |
| 1777643828 | 5.56° C | 73% | 1007.8 hPa | 0 mm | - | 439 W/m² | - |
| 1777643768 | 5.56° C | 73% | 1007.8 hPa | 0 mm | - | 439 W/m² | - |
* Rain latest hour (hover to see other rain measurements)
** Current wind speed in m/s (hover to see current wind gust speed)